Topeka, KS

5:02 PM CST on November 13, 2019 (GMT -0600)
Billard Municipal

Weather History for KTOP - September, 2019

Change the Weather History Date:

Wednesday, September 25, 2019

  Actual Average Record
Temperature  
Mean Temperature 74 °F 64 °F  
Max Temperature 84 °F 77 °F 93 °F (1898)
Min Temperature 64 °F 52 °F 33 °F (1989)
Degree Days  
Heating Degree Days 0 4  
Month to date heating degree days 0 41  
Since 1 July heating degree days 0 43  
Cooling Degree Days 9 3  
Month to date cooling degree days 296 151  
Year to date cooling degree days 1542 1379  
Growing Degree Days 24 (Base 50)    
Moisture  
Dew Point 61 °F    
Average Humidity 65    
Maximum Humidity 93    
Minimum Humidity 37    
Precipitation  
Precipitation 0.00 in 0.13 in 1.64 in (1887)
Month to date precipitation 1.78 3.07  
Year to date precipitation 42.67 29.64  
Snow  
Snow 0.00 in 0.00 in 0.00 in ()
Month to date snowfall 0.0 0.0  
Year to date snowfall 18.5 11.3  
Since 1 July snowfall T 0.0  
Snow Depth 0.00 in    
Sea Level Pressure  
Sea Level Pressure 29.83 in    
Wind  
Wind Speed 7 mph (NE)    
Max Wind Speed 15 mph    
Max Gust Speed 23 mph    
Visibility 9 miles    
Events      
T = Trace of Precipitation, MM = Missing Value Source: NWS Daily Summary

Daily Weather History Graph

Daily Weather History Graph

Search for Another Location

Airport or City:

Astronomy

Sep. 25, 2019 Rise Set
Actual Time 7:12 AM CDT 7:14 PM CDT
Civil Twilight 6:46 AM CDT 7:41 PM CDT
Nautical Twilight 6:14 AM CDT 8:12 PM CDT
Astronomical Twilight 5:43 AM CDT 8:44 PM CDT
Moon 3:10 AM CDT (9/25) 5:45 PM CDT (9/25)
Length of Visible Light 12h 55m
Length of Day
12h 02m
Waning Crescent, 14% of the Moon is Illuminated
Sep 25
Waning Crescent
Sep 28
New
Oct 5
First Quarter
Oct 13
Full
Oct 21
Last Quarter

Hourly Weather History & Observations

Time (CDT) Temp. Heat Index Dew Point Humidity Pressure Visibility Wind Dir Wind Speed Gust Speed Precip Events Conditions
12:53 AM 75.0 °F - 70.0 °F 84% 29.71 in 10.0 mi SSW 3.5 mph - N/A   Scattered Clouds
1:53 AM 73.0 °F - 69.1 °F 87% 29.70 in 10.0 mi SSW 4.6 mph - N/A   Clear
2:53 AM 71.1 °F - 68.0 °F 90% 29.74 in 10.0 mi Calm Calm - N/A   Partly Cloudy
3:53 AM 71.1 °F - 68.0 °F 90% 29.73 in 10.0 mi Calm Calm - N/A   Clear
5:53 AM 69.1 °F - 66.9 °F 93% 29.76 in 10.0 mi Calm Calm - N/A   Clear
6:53 AM 68.0 °F - 66.0 °F 93% 29.77 in 7.0 mi South 3.5 mph - N/A   Partly Cloudy
7:15 AM 69.1 °F - 66.9 °F 93% 29.79 in 8.0 mi Calm Calm - N/A   Mostly Cloudy
7:53 AM 69.1 °F - 66.9 °F 93% 29.80 in 5.0 mi NNW 5.8 mph - N/A   Overcast
8:16 AM 70.0 °F - 69.1 °F 97% 29.84 in 7.0 mi Calm Calm - N/A   Overcast
8:23 AM 71.1 °F - 69.1 °F 93% 29.84 in 8.0 mi NNW 3.5 mph - N/A   Overcast
8:48 AM 73.4 °F - 66.2 °F 78% 29.85 in 10.0 mi NNE 5.8 mph - N/A   Partly Cloudy
8:53 AM 73.0 °F - 66.9 °F 81% 29.82 in 10.0 mi NE 6.9 mph - N/A   Partly Cloudy
9:53 AM 75.9 °F - 61.0 °F 60% 29.85 in 10.0 mi NE 8.1 mph - N/A   Clear
10:53 AM 77.0 °F - 57.0 °F 50% 29.87 in 10.0 mi NNE 8.1 mph - N/A   Clear
11:53 AM 80.1 °F 80.4 °F 57.0 °F 45% 29.87 in 10.0 mi East 10.4 mph - N/A   Clear
12:53 PM 81.0 °F 81.0 °F 57.0 °F 44% 29.86 in 10.0 mi ENE 8.1 mph - N/A   Clear
1:53 PM 82.9 °F 82.1 °F 55.9 °F 39% 29.84 in 10.0 mi ENE 6.9 mph - N/A   Clear
2:53 PM 82.9 °F 81.9 °F 54.0 °F 37% 29.83 in 10.0 mi NE 9.2 mph - N/A   Clear
3:53 PM 82.9 °F 81.8 °F 53.1 °F 36% 29.83 in 10.0 mi NE 5.8 mph - N/A   Partly Cloudy
4:53 PM 82.0 °F 81.3 °F 54.0 °F 38% 29.84 in 10.0 mi NE 6.9 mph - N/A   Overcast
5:53 PM 80.1 °F 80.1 °F 55.0 °F 42% 29.85 in 10.0 mi NNE 5.8 mph - N/A   Overcast
6:53 PM 75.0 °F - 57.0 °F 53% 29.86 in 10.0 mi North 6.9 mph - N/A   Partly Cloudy
7:53 PM 73.9 °F - 54.0 °F 50% 29.89 in 10.0 mi North 10.4 mph 20.7 mph N/A   Overcast
8:53 PM 71.1 °F - 51.1 °F 49% 29.93 in 10.0 mi NNE 10.4 mph - N/A   Overcast
9:53 PM 70.0 °F - 51.1 °F 51% 29.96 in 10.0 mi NNE 11.5 mph - N/A   Overcast
10:53 PM 69.1 °F - 48.9 °F 49% 29.96 in 10.0 mi NNE 10.4 mph - N/A   Overcast
11:53 PM 66.9 °F - 46.0 °F 47% 29.98 in 10.0 mi NNE 10.4 mph 21.9 mph N/A   Overcast